| time (UTC) | temp C | wind direction | speed KPH | gust KPH | rain 1hr cm | rain 24hr cm | rain mn cm | humidity % | barometer mb |
| 20260503184958 | 15 | 291 | 3.2 | 3.2 | 0.00 | 0.00 | 0.00 | 30 | 1017.3 |
| 20260503184454 | 15 | 293 | 6.4 | 14.5 | 0.00 | 0.00 | 0.00 | 31 | 1017.5 |
| 20260503183951 | 14 | 252 | 8.0 | 11.3 | 0.00 | 0.00 | 0.00 | 32 | 1017.5 |
| 20260503183448 | 15 | 265 | 6.4 | 11.3 | 0.00 | 0.00 | 0.00 | 31 | 1017.3 |
| 20260503182944 | 15 | 259 | 11.3 | 14.5 | 0.00 | 0.00 | 0.00 | 33 | 1017.8 |
| 20260503182443 | 15 | 168 | 6.4 | 9.7 | 0.00 | 0.00 | 0.00 | 32 | 1017.7 |
| 20260503181940 | 14 | 234 | 1.6 | 3.2 | 0.00 | 0.00 | 0.00 | 32 | 1017.6 |
| 20260503181437 | 15 | 317 | 4.8 | 4.8 | 0.00 | 0.00 | 0.00 | 32 | 1017.9 |
| 20260503180933 | 14 | 265 | 3.2 | 4.8 | 0.00 | 0.00 | 0.00 | 34 | 1017.7 |
| 20260503180432 | 14 | 338 | 4.8 | 4.8 | 0.00 | 0.00 | 0.00 | 33 | 1017.9 |
| 20260503175928 | 14 | 283 | 4.8 | 8.0 | 0.00 | 0.00 | 0.00 | 33 | 1018.0 |
| 20260503175426 | 13 | 264 | 8.0 | 11.3 | 0.00 | 0.00 | 0.00 | 34 | 1018.1 |
| 20260503174922 | 14 | 282 | 14.5 | 20.9 | 0.00 | 0.00 | 0.00 | 35 | 1017.9 |
| 20260503174420 | 13 | 313 | 3.2 | 8.0 | 0.00 | 0.00 | 0.00 | 35 | 1018.2 |
| 20260503173920 | 13 | 253 | 8.0 | 11.3 | 0.00 | 0.00 | 0.00 | 38 | 1018.2 |
| 20260503173417 | 13 | 102 | 3.2 | 4.8 | 0.00 | 0.00 | 0.00 | 36 | 1017.9 |
| 20260503172914 | 13 | 284 | 1.6 | 3.2 | 0.00 | 0.00 | 0.00 | 38 | 1018.3 |
| 20260503172411 | 13 | 134 | 1.6 | 8.0 | 0.00 | 0.00 | 0.00 | 38 | 1018.3 |
| 20260503171907 | 13 | 241 | 1.6 | 3.2 | 0.00 | 0.00 | 0.00 | 36 | 1018.3 |
| 20260503171404 | 12 | 345 | 1.6 | 4.8 | 0.00 | 0.00 | 0.00 | 40 | 1018.4 |
| 20260503170901 | 12 | 183 | 9.7 | 12.9 | 0.00 | 0.00 | 0.00 | 38 | 1018.5 |
| 20260503170358 | 12 | 8 | 3.2 | 4.8 | 0.00 | 0.00 | 0.00 | 39 | 1018.3 |
| 20260503150750 | 10 | 54 | 3.2 | 8.0 | 0.00 | 0.00 | 0.00 | 44 | 1020.0 |
| 20260503150246 | 10 | 8 | 4.8 | 8.0 | 0.00 | 0.00 | 0.00 | 43 | 1020.0 |
| 20260503140210 | 8 | 5 | 9.7 | 11.3 | 0.00 | 0.00 | 0.00 | 45 | 1020.5 |
| 20260503131140 | 8 | 299 | 9.7 | 12.9 | 0.00 | 0.00 | 0.00 | 50 | 1019.9 |
| 20260503130637 | 7 | 298 | 4.8 | 8.0 | 0.00 | 0.00 | 0.00 | 52 | 1019.9 |
| 20260503130135 | 8 | 272 | 1.6 | 4.8 | 0.00 | 0.00 | 0.00 | 50 | 1020.0 |
| 20260503110527 | 2 | 296 | 1.6 | 1.6 | 0.00 | 0.00 | 0.00 | 82 | 1018.8 |
| 20260503090414 | 2 | 283 | 1.6 | 1.6 | 0.00 | 0.00 | 0.00 | 80 | 1017.0 |
| 20260503081341 | 1 | 283 | 0.0 | 0.0 | 0.00 | 0.00 | 0.00 | 92 | 1016.8 |
| 20260503080837 | 1 | 290 | 0.0 | 1.6 | 0.00 | 0.00 | 0.00 | 92 | 1016.9 |
| 20260503080335 | 1 | 303 | 0.0 | 1.6 | 0.00 | 0.00 | 0.00 | 92 | 1016.3 |
| 20260503072811 | 1 | 285 | 0.0 | 1.6 | 0.00 | 0.00 | 0.00 | 91 | 1016.2 |
| 20260503072308 | 1 | 270 | 0.0 | 1.6 | 0.00 | 0.00 | 0.00 | 90 | 1016.5 |
| 20260503071804 | 1 | 268 | 0.0 | 0.0 | 0.00 | 0.00 | 0.00 | 90 | 1016.1 |
| 20260503071302 | 1 | 267 | 0.0 | 0.0 | 0.00 | 0.00 | 0.00 | 90 | 1016.2 |
| 20260503070757 | 2 | 281 | 0.0 | 0.0 | 0.00 | 0.00 | 0.00 | 90 | 1016.0 |
| 20260503070256 | 2 | 320 | 1.6 | 3.2 | 0.00 | 0.00 | 0.00 | 90 | 1016.1 |
| 20260503060227 | 2 | 287 | 0.0 | 1.6 | 0.00 | 0.00 | 0.00 | 87 | 1016.2 |
| 20260503054713 | 2 | 289 | 1.6 | 3.2 | 0.00 | 0.00 | 0.00 | 88 | 1016.0 |
| 20260503054211 | 2 | 292 | 0.0 | 0.0 | 0.00 | 0.00 | 0.00 | 88 | 1015.8 |
| 20260503053709 | 2 | 326 | 1.6 | 1.6 | 0.00 | 0.00 | 0.00 | 88 | 1016.0 |
| 20260503053207 | 2 | 312 | 1.6 | 1.6 | 0.00 | 0.00 | 0.00 | 86 | 1016.1 |
| 20260503052703 | 2 | 293 | 1.6 | 1.6 | 0.00 | 0.00 | 0.00 | 86 | 1015.9 |
| 20260503052159 | 2 | 279 | 0.0 | 1.6 | 0.00 | 0.00 | 0.00 | 85 | 1016.0 |
| 20260503051655 | 2 | 303 | 1.6 | 1.6 | 0.00 | 0.00 | 0.00 | 85 | 1015.8 |
| 20260503051153 | 3 | 299 | 3.2 | 4.8 | 0.00 | 0.00 | 0.00 | 85 | 1016.0 |
| 20260503050649 | 3 | 299 | 4.8 | 4.8 | 0.00 | 0.00 | 0.00 | 84 | 1016.0 |
| 20260503050146 | 3 | 298 | 4.8 | 4.8 | 0.00 | 0.00 | 0.00 | 83 | 1015.8 |
| 20260503045643 | 3 | 324 | 3.2 | 3.2 | 0.00 | 0.00 | 0.00 | 82 | 1015.8 |
| 20260503045140 | 3 | 292 | 3.2 | 4.8 | 0.00 | 0.00 | 0.00 | 82 | 1015.6 |
| 20260503044637 | 3 | 288 | 1.6 | 1.6 | 0.00 | 0.00 | 0.00 | 83 | 1015.6 |
| 20260503044135 | 3 | 286 | 0.0 | 0.0 | 0.00 | 0.00 | 0.00 | 83 | 1015.9 |
| 20260503043631 | 3 | 278 | 0.0 | 0.0 | 0.00 | 0.00 | 0.00 | 83 | 1015.5 |
| 20260503043128 | 3 | 292 | 1.6 | 1.6 | 0.00 | 0.00 | 0.00 | 83 | 1015.9 |
| 20260503042625 | 3 | 296 | 3.2 | 3.2 | 0.00 | 0.00 | 0.00 | 83 | 1015.5 |
| 20260503042120 | 3 | 295 | 3.2 | 3.2 | 0.00 | 0.00 | 0.00 | 82 | 1015.5 |
| 20260503041617 | 3 | 292 | 0.0 | 1.6 | 0.00 | 0.00 | 0.00 | 82 | 1015.5 |
| 20260503041115 | 3 | 307 | 0.0 | 0.0 | 0.00 | 0.00 | 0.00 | 82 | 1015.8 |
| 20260503040612 | 3 | 299 | 1.6 | 1.6 | 0.00 | 0.00 | 0.00 | 81 | 1015.6 |
| 20260503040109 | 3 | 280 | 0.0 | 0.0 | 0.00 | 0.00 | 0.00 | 81 | 1015.8 |
| 20260503035606 | 4 | 284 | 1.6 | 1.6 | 0.00 | 0.00 | 0.00 | 81 | 1015.8 |
| 20260503035104 | 4 | 284 | 0.0 | 1.6 | 0.00 | 0.00 | 0.00 | 80 | 1015.6 |
| 20260503034601 | 4 | 305 | 1.6 | 1.6 | 0.00 | 0.00 | 0.00 | 79 | 1015.6 |
| 20260503034058 | 5 | 276 | 0.0 | 0.0 | 0.00 | 0.00 | 0.00 | 77 | 1015.8 |
| 20260503033555 | 5 | 291 | 0.0 | 1.6 | 0.00 | 0.00 | 0.00 | 76 | 1015.6 |
| 20260503033053 | 5 | 289 | 1.6 | 1.6 | 0.00 | 0.00 | 0.00 | 77 | 1015.8 |
| 20260503032551 | 5 | 305 | 3.2 | 3.2 | 0.00 | 0.00 | 0.00 | 76 | 1015.6 |
| 20260503032049 | 5 | 301 | 3.2 | 3.2 | 0.00 | 0.00 | 0.00 | 76 | 1015.3 |
| 20260503031546 | 5 | 307 | 1.6 | 3.2 | 0.00 | 0.00 | 0.00 | 77 | 1015.6 |
| 20260503031043 | 5 | 284 | 0.0 | 1.6 | 0.00 | 0.00 | 0.00 | 77 | 1015.5 |
| 20260503030539 | 5 | 288 | 0.0 | 1.6 | 0.00 | 0.00 | 0.00 | 76 | 1015.5 |
| 20260503030037 | 5 | 289 | 1.6 | 1.6 | 0.00 | 0.00 | 0.00 | 74 | 1015.3 |
| 20260503025533 | 5 | 278 | 0.0 | 0.0 | 0.00 | 0.00 | 0.00 | 72 | 1015.2 |
| 20260503025031 | 6 | 284 | 0.0 | 0.0 | 0.00 | 0.00 | 0.00 | 72 | 1015.3 |
| 20260503024527 | 6 | 278 | 0.0 | 0.0 | 0.00 | 0.00 | 0.00 | 70 | 1015.5 |
| 20260503024024 | 6 | 311 | 1.6 | 1.6 | 0.00 | 0.00 | 0.00 | 66 | 1015.5 |
| 20260503023521 | 6 | 290 | 1.6 | 1.6 | 0.00 | 0.00 | 0.00 | 67 | 1015.2 |
| 20260503023019 | 6 | 315 | 1.6 | 1.6 | 0.00 | 0.00 | 0.00 | 67 | 1015.2 |
| 20260503022514 | 6 | 299 | 1.6 | 1.6 | 0.00 | 0.00 | 0.00 | 69 | 1015.2 |
| 20260503022009 | 6 | 282 | 0.0 | 0.0 | 0.00 | 0.00 | 0.00 | 68 | 1015.2 |
| 20260503021506 | 7 | 283 | 1.6 | 1.6 | 0.00 | 0.00 | 0.00 | 63 | 1015.4 |
| 20260503021003 | 7 | 307 | 1.6 | 1.6 | 0.00 | 0.00 | 0.00 | 62 | 1015.1 |
| 20260503020500 | 7 | 302 | 1.6 | 1.6 | 0.00 | 0.00 | 0.00 | 63 | 1015.2 |
| 20260503015957 | 7 | 319 | 1.6 | 1.6 | 0.00 | 0.00 | 0.00 | 64 | 1015.2 |
| 20260503015454 | 7 | 297 | 1.6 | 1.6 | 0.00 | 0.00 | 0.00 | 61 | 1015.1 |
| 20260503014950 | 7 | 313 | 1.6 | 3.2 | 0.00 | 0.00 | 0.00 | 60 | 1015.2 |
| 20260503014447 | 7 | 274 | 0.0 | 0.0 | 0.00 | 0.00 | 0.00 | 59 | 1015.3 |
| 20260503013945 | 8 | 274 | 0.0 | 0.0 | 0.00 | 0.00 | 0.00 | 60 | 1014.9 |
| 20260503013442 | 8 | 286 | 0.0 | 1.6 | 0.00 | 0.00 | 0.00 | 58 | 1015.1 |
| 20260503012939 | 8 | 292 | 0.0 | 1.6 | 0.00 | 0.00 | 0.00 | 53 | 1015.0 |
| 20260503012437 | 9 | 285 | 0.0 | 0.0 | 0.00 | 0.00 | 0.00 | 50 | 1015.1 |
| 20260503011933 | 9 | 288 | 0.0 | 1.6 | 0.00 | 0.00 | 0.00 | 50 | 1014.8 |
| 20260503011430 | 10 | 325 | 1.6 | 1.6 | 0.00 | 0.00 | 0.00 | 50 | 1014.9 |
| 20260503010927 | 10 | 321 | 1.6 | 1.6 | 0.00 | 0.00 | 0.00 | 48 | 1014.8 |
| 20260503010424 | 10 | 335 | 1.6 | 1.6 | 0.00 | 0.00 | 0.00 | 48 | 1014.7 |
| 20260503005921 | 10 | 294 | 1.6 | 3.2 | 0.00 | 0.00 | 0.00 | 49 | 1014.9 |
| 20260503005418 | 10 | 298 | 0.0 | 1.6 | 0.00 | 0.00 | 0.00 | 51 | 1014.8 |
| 20260503004914 | 10 | 297 | 1.6 | 1.6 | 0.00 | 0.00 | 0.00 | 52 | 1014.7 |
| 20260503004412 | 10 | 270 | 1.6 | 1.6 | 0.00 | 0.00 | 0.00 | 51 | 1014.5 |
| 20260503003909 | 10 | 277 | 0.0 | 0.0 | 0.00 | 0.00 | 0.00 | 53 | 1014.4 |
| 20260503003405 | 10 | 304 | 1.6 | 1.6 | 0.00 | 0.00 | 0.00 | 49 | 1014.5 |
| 20260503002903 | 10 | 276 | 0.0 | 1.6 | 0.00 | 0.00 | 0.00 | 49 | 1014.5 |
| 20260503002400 | 11 | 279 | 1.6 | 1.6 | 0.00 | 0.00 | 0.00 | 49 | 1014.4 |
| 20260503001856 | 11 | 270 | 3.2 | 3.2 | 0.00 | 0.00 | 0.00 | 49 | 1014.3 |
| 20260503001353 | 11 | 274 | 1.6 | 1.6 | 0.00 | 0.00 | 0.00 | 48 | 1014.1 |
| 20260503000851 | 11 | 284 | 3.2 | 3.2 | 0.00 | 0.00 | 0.00 | 46 | 1013.9 |
| 20260503000348 | 11 | 292 | 0.0 | 1.6 | 0.00 | 0.00 | 0.00 | 47 | 1014.2 |
| 20260502235844 | 11 | 272 | 1.6 | 1.6 | 0.00 | 0.00 | 0.00 | 45 | 1014.0 |
| 20260502235342 | 12 | 281 | 0.0 | 0.0 | 0.00 | 0.00 | 0.00 | 44 | 1014.1 |
| 20260502234838 | 12 | 278 | 0.0 | 1.6 | 0.00 | 0.00 | 0.00 | 43 | 1013.9 |
| 20260502234335 | 12 | 292 | 3.2 | 3.2 | 0.00 | 0.00 | 0.00 | 42 | 1014.0 |
| 20260502233832 | 12 | 296 | 6.4 | 8.0 | 0.00 | 0.00 | 0.00 | 41 | 1013.8 |
| 20260502233328 | 12 | 273 | 3.2 | 3.2 | 0.00 | 0.00 | 0.00 | 40 | 1013.6 |
| 20260502232825 | 12 | 349 | 8.0 | 11.3 | 0.00 | 0.00 | 0.00 | 41 | 1013.8 |
| 20260502232322 | 13 | 265 | 1.6 | 3.2 | 0.00 | 0.00 | 0.00 | 40 | 1013.5 |
| 20260502231818 | 13 | 306 | 4.8 | 8.0 | 0.00 | 0.00 | 0.00 | 39 | 1013.3 |
| 20260502231316 | 13 | 296 | 0.0 | 1.6 | 0.00 | 0.00 | 0.00 | 39 | 1013.3 |
| 20260502230814 | 13 | 305 | 11.3 | 12.9 | 0.00 | 0.00 | 0.00 | 39 | 1013.5 |
| 20260502230312 | 14 | 266 | 3.2 | 4.8 | 0.00 | 0.00 | 0.00 | 39 | 1013.3 |
| 20260502225808 | 13 | 309 | 3.2 | 3.2 | 0.00 | 0.00 | 0.00 | 38 | 1013.1 |
| 20260502225305 | 13 | 294 | 8.0 | 11.3 | 0.00 | 0.00 | 0.00 | 38 | 1013.2 |
| 20260502224802 | 13 | 267 | 6.4 | 9.7 | 0.00 | 0.00 | 0.00 | 39 | 1013.1 |
| 20260502224258 | 13 | 315 | 8.0 | 9.7 | 0.00 | 0.00 | 0.00 | 39 | 1013.3 |
| 20260502223756 | 13 | 271 | 8.0 | 11.3 | 0.00 | 0.00 | 0.00 | 38 | 1013.0 |
| 20260502223254 | 15 | 275 | 8.0 | 12.9 | 0.00 | 0.00 | 0.00 | 37 | 1012.8 |
| 20260502222751 | 15 | 276 | 4.8 | 4.8 | 0.00 | 0.00 | 0.00 | 37 | 1013.0 |
| 20260502222248 | 14 | 321 | 3.2 | 4.8 | 0.00 | 0.00 | 0.00 | 37 | 1012.8 |
| 20260502221743 | 14 | 327 | 8.0 | 9.7 | 0.00 | 0.00 | 0.00 | 38 | 1012.8 |
| 20260502221240 | 15 | 296 | 8.0 | 11.3 | 0.00 | 0.00 | 0.00 | 36 | 1012.6 |
| 20260502220737 | 15 | 266 | 0.0 | 1.6 | 0.00 | 0.00 | 0.00 | 39 | 1012.8 |
| 20260502220233 | 14 | 297 | 9.7 | 12.9 | 0.00 | 0.00 | 0.00 | 38 | 1012.5 |
| 20260502215730 | 14 | 275 | 17.7 | 29.0 | 0.00 | 0.00 | 0.00 | 37 | 1012.7 |
| 20260502215227 | 14 | 329 | 11.3 | 12.9 | 0.00 | 0.00 | 0.00 | 38 | 1012.5 |
| 20260502214724 | 14 | 290 | 9.7 | 12.9 | 0.00 | 0.00 | 0.00 | 37 | 1012.5 |
| 20260502214221 | 14 | 323 | 11.3 | 14.5 | 0.00 | 0.00 | 0.00 | 39 | 1012.4 |
| 20260502213718 | 14 | 314 | 14.5 | 20.9 | 0.00 | 0.00 | 0.00 | 37 | 1012.4 |
| 20260502213216 | 14 | 311 | 12.9 | 17.7 | 0.00 | 0.00 | 0.00 | 38 | 1012.4 |
| 20260502212714 | 14 | 295 | 6.4 | 9.7 | 0.00 | 0.00 | 0.00 | 38 | 1012.4 |
| 20260502212212 | 14 | 310 | 4.8 | 12.9 | 0.00 | 0.00 | 0.00 | 38 | 1012.1 |
| 20260502211708 | 15 | 336 | 9.7 | 14.5 | 0.00 | 0.00 | 0.00 | 38 | 1011.9 |
| 20260502211205 | 15 | 262 | 8.0 | 9.7 | 0.00 | 0.00 | 0.00 | 38 | 1011.8 |
| 20260502210702 | 15 | 3 | 3.2 | 4.8 | 0.00 | 0.00 | 0.00 | 38 | 1011.8 |
| 20260502210159 | 15 | 327 | 12.9 | 17.7 | 0.00 | 0.00 | 0.00 | 36 | 1011.7 |
| 20260502205656 | 15 | 334 | 11.3 | 17.7 | 0.00 | 0.00 | 0.00 | 35 | 1011.7 |
| 20260502205153 | 15 | 314 | 16.1 | 25.7 | 0.00 | 0.00 | 0.00 | 35 | 1011.9 |
| 20260502204649 | 15 | 268 | 4.8 | 8.0 | 0.00 | 0.00 | 0.00 | 36 | 1011.7 |
| 20260502204148 | 15 | 250 | 4.8 | 8.0 | 0.00 | 0.00 | 0.00 | 35 | 1011.6 |
| 20260502203644 | 15 | 270 | 11.3 | 14.5 | 0.00 | 0.00 | 0.00 | 35 | 1011.6 |
| 20260502203142 | 15 | 255 | 1.6 | 3.2 | 0.00 | 0.00 | 0.00 | 35 | 1011.7 |
| 20260502202637 | 15 | 311 | 6.4 | 9.7 | 0.00 | 0.00 | 0.00 | 34 | 1011.6 |
| 20260502202135 | 16 | 302 | 6.4 | 8.0 | 0.00 | 0.00 | 0.00 | 33 | 1011.6 |
| 20260502201632 | 16 | 307 | 8.0 | 9.7 | 0.00 | 0.00 | 0.00 | 32 | 1011.5 |
| 20260502201128 | 16 | 274 | 4.8 | 8.0 | 0.00 | 0.00 | 0.00 | 32 | 1011.4 |
| 20260502200624 | 16 | 303 | 11.3 | 14.5 | 0.00 | 0.00 | 0.00 | 31 | 1011.5 |
| 20260502200121 | 16 | 306 | 4.8 | 4.8 | 0.00 | 0.00 | 0.00 | 32 | 1011.6 |
| 20260502195620 | 17 | 222 | 4.8 | 8.0 | 0.00 | 0.00 | 0.00 | 33 | 1011.6 |
| 20260502195114 | 16 | 268 | 1.6 | 3.2 | 0.00 | 0.00 | 0.00 | 32 | 1011.4 |
| 20260502194612 | 16 | 56 | 1.6 | 3.2 | 0.00 | 0.00 | 0.00 | 33 | 1011.7 |
| 20260502194108 | 15 | 296 | 4.8 | 4.8 | 0.00 | 0.00 | 0.00 | 34 | 1011.7 |
| 20260502193605 | 15 | 274 | 9.7 | 16.1 | 0.00 | 0.00 | 0.00 | 33 | 1011.7 |
| 20260502193102 | 16 | 277 | 4.8 | 8.0 | 0.00 | 0.00 | 0.00 | 33 | 1011.9 |
| 20260502192558 | 16 | 291 | 4.8 | 8.0 | 0.00 | 0.00 | 0.00 | 32 | 1011.9 |
| 20260502192055 | 16 | 155 | 0.0 | 1.6 | 0.00 | 0.00 | 0.00 | 37 | 1011.7 |
| 20260502191552 | 16 | 177 | 3.2 | 4.8 | 0.00 | 0.00 | 0.00 | 35 | 1011.9 |
| 20260502191050 | 16 | 135 | 6.4 | 8.0 | 0.00 | 0.00 | 0.00 | 36 | 1012.0 |
| 20260502190547 | 16 | 105 | 4.8 | 4.8 | 0.00 | 0.00 | 0.00 | 36 | 1012.5 |
| 20260502190044 | 15 | 77 | 3.2 | 4.8 | 0.00 | 0.00 | 0.00 | 37 | 1012.3 |
| 20260502185538 | 15 | 67 | 8.0 | 9.7 | 0.00 | 0.00 | 0.00 | 37 | 1012.1 |
| 20260502185036 | 15 | 122 | 4.8 | 4.8 | 0.00 | 0.00 | 0.00 | 36 | 1012.4 |